N13BE KHEF-KMTP

Flight info

Callsign N13BE
Flight time 2h 13m
Altitude 11000
Route ARSNL5 FLUKY V286 BRV NHK ATR SIE V139 PLUME V139 HTO V268 JORDN
Aircraft BE33/L-VGD/C

Departure

Time 2026-05-03 23:06
Airport Manassas Regional Airport/Harry P. Davis Field (KHEF)

Arrival

Time 2026-05-04 01:19
Airport Montauk Airport (KMTP)
Time Latitude Longitude Altitude Speed Heading
2026-05-03 22:58 38.72721 -77.51362 185 ft 0 kts 145°
2026-05-03 23:00 38.72671 -77.51372 185 ft 12 kts 149°
2026-05-03 23:00 38.72577 -77.51308 182 ft 18 kts 154°
2026-05-03 23:01 38.72454 -77.51221 178 ft 21 kts 148°
2026-05-03 23:01 38.72345 -77.51200 176 ft 15 kts 232°
2026-05-03 23:01 38.72286 -77.51257 177 ft 10 kts 150°
2026-05-03 23:01 38.72209 -77.51200 176 ft 14 kts 127°
2026-05-03 23:02 38.72164 -77.51219 175 ft 11 kts 244°
2026-05-03 23:02 38.72096 -77.51231 174 ft 11 kts 149°
2026-05-03 23:02 38.72018 -77.51175 172 ft 13 kts 144°
2026-05-03 23:02 38.71928 -77.51113 172 ft 15 kts 150°
2026-05-03 23:03 38.71838 -77.51059 172 ft 12 kts 218°
2026-05-03 23:03 38.71851 -77.51151 172 ft 12 kts 298°
2026-05-03 23:03 38.71881 -77.51253 173 ft 11 kts 256°
2026-05-03 23:03 38.71845 -77.51357 172 ft 13 kts 243°
2026-05-03 23:04 38.71819 -77.51408 173 ft 0 kts 238°
2026-05-03 23:04 38.71809 -77.51428 173 ft 5 kts 238°
2026-05-03 23:05 38.71809 -77.51487 174 ft 8 kts 316°
2026-05-03 23:05 38.71974 -77.51614 175 ft 55 kts 333°
2026-05-03 23:05 38.72421 -77.51910 338 ft 77 kts 327°
2026-05-03 23:05 38.72884 -77.52245 635 ft 80 kts 323°
2026-05-03 23:06 38.73395 -77.52603 910 ft 84 kts 316°
2026-05-03 23:06 38.73455 -77.53252 1222 ft 80 kts 258°
2026-05-03 23:06 38.73313 -77.53938 1462 ft 81 kts 255°
2026-05-03 23:06 38.73147 -77.54656 1651 ft 88 kts 257°
2026-05-03 23:07 38.72968 -77.55461 1832 ft 98 kts 259°
2026-05-03 23:07 38.72776 -77.56336 2007 ft 106 kts 259°
2026-05-03 23:07 38.72576 -77.57267 2184 ft 112 kts 258°
2026-05-03 23:07 38.72371 -77.58250 2356 ft 117 kts 259°
2026-05-03 23:08 38.72274 -77.59281 2524 ft 118 kts 277°
2026-05-03 23:08 38.72533 -77.60272 2685 ft 119 kts 297°
2026-05-03 23:08 38.72845 -77.61249 2893 ft 119 kts 290°
2026-05-03 23:08 38.73096 -77.62243 3142 ft 116 kts 289°
2026-05-03 23:09 38.73340 -77.63219 3388 ft 114 kts 289°
2026-05-03 23:09 38.73575 -77.64160 3631 ft 111 kts 289°
2026-05-03 23:09 38.73809 -77.65095 3877 ft 109 kts 289°
2026-05-03 23:09 38.74036 -77.66007 4120 ft 107 kts 289°
2026-05-03 23:10 38.74265 -77.66907 4366 ft 105 kts 289°
2026-05-03 23:10 38.74488 -77.67786 4611 ft 103 kts 289°
2026-05-03 23:10 38.74657 -77.68666 4853 ft 102 kts 280°
2026-05-03 23:10 38.74752 -77.69554 5086 ft 100 kts 279°
2026-05-03 23:11 38.74565 -77.70401 5348 ft 103 kts 244°
2026-05-03 23:11 38.74154 -77.71134 5592 ft 101 kts 238°
2026-05-03 23:11 38.73725 -77.71832 5834 ft 99 kts 237°
2026-05-03 23:11 38.73299 -77.72503 6075 ft 96 kts 237°
2026-05-03 23:12 38.72883 -77.73148 6314 ft 92 kts 237°
2026-05-03 23:12 38.72478 -77.73773 6558 ft 91 kts 237°
2026-05-03 23:12 38.72054 -77.74426 6747 ft 98 kts 237°
2026-05-03 23:12 38.71602 -77.75121 6930 ft 105 kts 238°
2026-05-03 23:13 38.71125 -77.75856 7108 ft 111 kts 237°
2026-05-03 23:13 38.70620 -77.76630 7289 ft 115 kts 237°
2026-05-03 23:13 38.70099 -77.77427 7469 ft 119 kts 237°
2026-05-03 23:13 38.69555 -77.78259 7647 ft 123 kts 238°
2026-05-03 23:14 38.69003 -77.79099 7826 ft 125 kts 237°
2026-05-03 23:14 38.68435 -77.79965 8008 ft 127 kts 238°
2026-05-03 23:14 38.67864 -77.80827 8181 ft 128 kts 238°
2026-05-03 23:14 38.67281 -77.81710 8354 ft 129 kts 238°
2026-05-03 23:15 38.66704 -77.82584 8530 ft 130 kts 238°
2026-05-03 23:15 38.66118 -77.83472 8707 ft 130 kts 238°
2026-05-03 23:15 38.65539 -77.84347 8880 ft 130 kts 239°
2026-05-03 23:15 38.64952 -77.85239 9049 ft 130 kts 239°
2026-05-03 23:16 38.64138 -77.85819 9227 ft 146 kts 195°
2026-05-03 23:16 38.63129 -77.85520 9414 ft 156 kts 152°
2026-05-03 23:16 38.62253 -77.84710 9581 ft 157 kts 143°
2026-05-03 23:16 38.61407 -77.83839 9749 ft 157 kts 142°
2026-05-03 23:17 38.60548 -77.82951 9915 ft 157 kts 142°
2026-05-03 23:17 38.59706 -77.82086 10075 ft 157 kts 142°
2026-05-03 23:17 38.58846 -77.81207 10242 ft 157 kts 142°
2026-05-03 23:17 38.57997 -77.80341 10408 ft 157 kts 143°
2026-05-03 23:18 38.57142 -77.79471 10582 ft 156 kts 143°
2026-05-03 23:18 38.56283 -77.78601 10758 ft 156 kts 143°
2026-05-03 23:18 38.55435 -77.77743 10933 ft 155 kts 143°
2026-05-03 23:18 38.54576 -77.76874 11019 ft 162 kts 143°
2026-05-03 23:19 38.53657 -77.75950 11029 ft 172 kts 144°
2026-05-03 23:19 38.52689 -77.74976 11028 ft 180 kts 143°
2026-05-03 23:19 38.51698 -77.73977 11031 ft 186 kts 143°
2026-05-03 23:19 38.50703 -77.72886 11032 ft 191 kts 129°
2026-05-03 23:20 38.49971 -77.71464 11036 ft 194 kts 118°
2026-05-03 23:20 38.49297 -77.69967 11034 ft 196 kts 117°
2026-05-03 23:20 38.48619 -77.68442 11035 ft 197 kts 117°
2026-05-03 23:20 38.47938 -77.66914 11030 ft 198 kts 117°
2026-05-03 23:21 38.47254 -77.65391 11038 ft 199 kts 117°
2026-05-03 23:21 38.46569 -77.63864 11038 ft 199 kts 117°
2026-05-03 23:21 38.45878 -77.62329 11035 ft 199 kts 117°
2026-05-03 23:21 38.45187 -77.60797 11036 ft 199 kts 118°
2026-05-03 23:22 38.43800 -77.57726 11036 ft 199 kts 117°
2026-05-03 23:22 38.43106 -77.56190 11036 ft 199 kts 118°
2026-05-03 23:22 38.42418 -77.54668 11031 ft 199 kts 118°
2026-05-03 23:23 38.41724 -77.53132 11033 ft 198 kts 118°
2026-05-03 23:23 38.41035 -77.51611 11033 ft 198 kts 118°
2026-05-03 23:23 38.40345 -77.50085 11035 ft 198 kts 118°
2026-05-03 23:23 38.39659 -77.48568 11033 ft 198 kts 118°
2026-05-03 23:24 38.38970 -77.47051 11036 ft 197 kts 118°
2026-05-03 23:24 38.38283 -77.45534 11038 ft 197 kts 118°
2026-05-03 23:24 38.37598 -77.44023 11034 ft 198 kts 117°
2026-05-03 23:24 38.36912 -77.42512 11034 ft 198 kts 118°
2026-05-03 23:25 38.36221 -77.40990 11033 ft 198 kts 118°
2026-05-03 23:25 38.35533 -77.39475 11039 ft 198 kts 118°
2026-05-03 23:25 38.34840 -77.37946 11038 ft 198 kts 117°
2026-05-03 23:25 38.34150 -77.36430 11039 ft 198 kts 118°
2026-05-03 23:26 38.33633 -77.34830 11045 ft 194 kts 95°
2026-05-03 23:26 38.33492 -77.33142 11038 ft 193 kts 88°
2026-05-03 23:26 38.33403 -77.31445 11033 ft 192 kts 88°
2026-05-03 23:26 38.33317 -77.29745 11037 ft 193 kts 88°
2026-05-03 23:27 38.33229 -77.28040 11036 ft 193 kts 87°
2026-05-03 23:27 38.33138 -77.26335 11032 ft 193 kts 88°
2026-05-03 23:27 38.33045 -77.24641 11030 ft 193 kts 88°
2026-05-03 23:27 38.32951 -77.22929 11032 ft 192 kts 88°
2026-05-03 23:28 38.32857 -77.21230 11034 ft 193 kts 88°
2026-05-03 23:28 38.32762 -77.19531 11036 ft 193 kts 88°
2026-05-03 23:28 38.32668 -77.17834 11035 ft 193 kts 88°
2026-05-03 23:28 38.32573 -77.16121 11035 ft 194 kts 88°
2026-05-03 23:29 38.32476 -77.14407 11033 ft 194 kts 88°
2026-05-03 23:29 38.32379 -77.12698 11030 ft 194 kts 88°
2026-05-03 23:29 38.32282 -77.10986 11030 ft 194 kts 88°
2026-05-03 23:29 38.32185 -77.09288 11031 ft 194 kts 88°
2026-05-03 23:30 38.32088 -77.07563 11031 ft 194 kts 88°
2026-05-03 23:30 38.31991 -77.05869 11028 ft 194 kts 88°
2026-05-03 23:30 38.31894 -77.04164 11030 ft 193 kts 88°
2026-05-03 23:30 38.31795 -77.02454 11031 ft 193 kts 88°
2026-05-03 23:31 38.31697 -77.00744 11036 ft 194 kts 88°
2026-05-03 23:31 38.31598 -76.99020 11024 ft 194 kts 88°
2026-05-03 23:31 38.31500 -76.97311 11032 ft 194 kts 88°
2026-05-03 23:31 38.31401 -76.95612 11027 ft 194 kts 88°
2026-05-03 23:32 38.31301 -76.93885 11030 ft 194 kts 88°
2026-05-03 23:32 38.31201 -76.92177 11030 ft 194 kts 88°
2026-05-03 23:32 38.31102 -76.90478 11029 ft 194 kts 88°
2026-05-03 23:32 38.31002 -76.88766 11030 ft 194 kts 88°
2026-05-03 23:33 38.30901 -76.87032 11027 ft 194 kts 88°
2026-05-03 23:33 38.30802 -76.85336 11033 ft 194 kts 88°
2026-05-03 23:33 38.30700 -76.83609 11029 ft 194 kts 88°
2026-05-03 23:33 38.30599 -76.81909 11030 ft 194 kts 88°
2026-05-03 23:34 38.30497 -76.80185 11033 ft 194 kts 88°
2026-05-03 23:34 38.30396 -76.78485 11033 ft 194 kts 88°
2026-05-03 23:34 38.30292 -76.76756 11031 ft 195 kts 88°
2026-05-03 23:34 38.30191 -76.75058 11027 ft 195 kts 88°
2026-05-03 23:35 38.30090 -76.73341 11033 ft 195 kts 88°
2026-05-03 23:35 38.29986 -76.71620 11029 ft 195 kts 88°
2026-05-03 23:35 38.29881 -76.69895 11031 ft 194 kts 88°
2026-05-03 23:35 38.29779 -76.68185 11029 ft 195 kts 88°
2026-05-03 23:36 38.29676 -76.66481 11027 ft 194 kts 88°
2026-05-03 23:36 38.29572 -76.64753 11034 ft 194 kts 88°
2026-05-03 23:36 38.29469 -76.63042 11033 ft 194 kts 88°
2026-05-03 23:36 38.29365 -76.61349 11035 ft 194 kts 88°
2026-05-03 23:37 38.29259 -76.59617 11034 ft 194 kts 88°
2026-05-03 23:37 38.29155 -76.57920 11034 ft 195 kts 88°
2026-05-03 23:37 38.29050 -76.56194 11031 ft 195 kts 88°
2026-05-03 23:37 38.28944 -76.54481 11031 ft 194 kts 88°
2026-05-03 23:38 38.28839 -76.52767 11034 ft 194 kts 87°
2026-05-03 23:38 38.28733 -76.51046 11034 ft 195 kts 88°
2026-05-03 23:38 38.28627 -76.49342 11037 ft 195 kts 88°
2026-05-03 23:38 38.28521 -76.47624 11037 ft 195 kts 88°
2026-05-03 23:39 38.28416 -76.45918 11036 ft 195 kts 88°
2026-05-03 23:39 38.28307 -76.44178 11036 ft 195 kts 88°
2026-05-03 23:39 38.28200 -76.42473 11037 ft 195 kts 88°
2026-05-03 23:39 38.28312 -76.40803 11039 ft 183 kts 59°
2026-05-03 23:40 38.28860 -76.39389 11040 ft 179 kts 50°
2026-05-03 23:40 38.29481 -76.38002 11037 ft 179 kts 49°
2026-05-03 23:40 38.30094 -76.36646 11036 ft 179 kts 49°
2026-05-03 23:40 38.30720 -76.35259 11035 ft 179 kts 49°
2026-05-03 23:41 38.31335 -76.33895 11033 ft 179 kts 50°
2026-05-03 23:41 38.31953 -76.32516 11031 ft 179 kts 50°
2026-05-03 23:41 38.32569 -76.31142 11029 ft 178 kts 50°
2026-05-03 23:41 38.33181 -76.29777 11030 ft 178 kts 49°
2026-05-03 23:42 38.33797 -76.28401 11033 ft 178 kts 49°
2026-05-03 23:42 38.34409 -76.27033 11028 ft 178 kts 49°
2026-05-03 23:42 38.35017 -76.25676 11036 ft 178 kts 50°
2026-05-03 23:42 38.35630 -76.24305 11036 ft 179 kts 50°
2026-05-03 23:43 38.36244 -76.22931 11031 ft 179 kts 50°
2026-05-03 23:43 38.36860 -76.21552 11029 ft 179 kts 50°
2026-05-03 23:43 38.37474 -76.20174 11025 ft 178 kts 50°
2026-05-03 23:43 38.38082 -76.18809 11027 ft 178 kts 49°
2026-05-03 23:44 38.38698 -76.17429 11025 ft 178 kts 50°
2026-05-03 23:44 38.39307 -76.16065 11029 ft 177 kts 50°
2026-05-03 23:44 38.39915 -76.14704 11028 ft 178 kts 50°
2026-05-03 23:44 38.40527 -76.13329 11031 ft 178 kts 50°
2026-05-03 23:45 38.41138 -76.11957 11035 ft 178 kts 50°
2026-05-03 23:45 38.41745 -76.10590 11028 ft 178 kts 49°
2026-05-03 23:45 38.42356 -76.09216 11029 ft 178 kts 49°
2026-05-03 23:45 38.42961 -76.07858 11031 ft 178 kts 49°
2026-05-03 23:46 38.43572 -76.06486 11029 ft 178 kts 49°
2026-05-03 23:46 38.44182 -76.05109 11033 ft 177 kts 50°
2026-05-03 23:46 38.44795 -76.03731 11033 ft 178 kts 50°
2026-05-03 23:46 38.45399 -76.02368 11029 ft 178 kts 49°
2026-05-03 23:47 38.46012 -76.00990 11027 ft 178 kts 49°
2026-05-03 23:47 38.46616 -75.99625 11025 ft 178 kts 49°
2026-05-03 23:47 38.47230 -75.98241 11028 ft 177 kts 49°
2026-05-03 23:47 38.47837 -75.96870 11028 ft 177 kts 49°
2026-05-03 23:48 38.48442 -75.95509 11027 ft 178 kts 49°
2026-05-03 23:48 38.49054 -75.94129 11038 ft 178 kts 49°
2026-05-03 23:48 38.49661 -75.92760 11031 ft 179 kts 50°
2026-05-03 23:48 38.50280 -75.91358 11022 ft 179 kts 49°
2026-05-03 23:49 38.50892 -75.89970 11017 ft 178 kts 49°
2026-05-03 23:49 38.51493 -75.88612 11022 ft 178 kts 49°
2026-05-03 23:49 38.52102 -75.87229 11024 ft 178 kts 49°
2026-05-03 23:49 38.52711 -75.85850 11017 ft 177 kts 49°
2026-05-03 23:50 38.53312 -75.84488 11020 ft 177 kts 49°
2026-05-03 23:50 38.53718 -75.83568 11029 ft 177 kts 49°
2026-05-03 23:50 38.54527 -75.81737 11026 ft 178 kts 49°
2026-05-03 23:50 38.55131 -75.80367 11018 ft 178 kts 49°
2026-05-03 23:51 38.55737 -75.78991 11020 ft 178 kts 49°
2026-05-03 23:51 38.56344 -75.77615 11018 ft 178 kts 49°
2026-05-03 23:51 38.56945 -75.76246 11016 ft 177 kts 49°
2026-05-03 23:51 38.57551 -75.74870 11025 ft 177 kts 49°
2026-05-03 23:52 38.58153 -75.73502 11017 ft 178 kts 49°
2026-05-03 23:52 38.58765 -75.72112 11016 ft 178 kts 49°
2026-05-03 23:52 38.59369 -75.70741 11018 ft 178 kts 49°
2026-05-03 23:52 38.59974 -75.69362 11015 ft 178 kts 49°
2026-05-03 23:53 38.60582 -75.67978 11014 ft 178 kts 49°
2026-05-03 23:53 38.61192 -75.66589 11013 ft 178 kts 49°
2026-05-03 23:53 38.61792 -75.65221 11010 ft 177 kts 49°
2026-05-03 23:53 38.62394 -75.63848 11014 ft 177 kts 49°
2026-05-03 23:54 38.62994 -75.62479 11022 ft 178 kts 49°
2026-05-03 23:54 38.63603 -75.61089 11014 ft 178 kts 49°
2026-05-03 23:54 38.64210 -75.59704 11013 ft 178 kts 49°
2026-05-03 23:54 38.64812 -75.58330 11011 ft 178 kts 49°
2026-05-03 23:55 38.65423 -75.56934 11010 ft 178 kts 49°
2026-05-03 23:55 38.66027 -75.55550 11007 ft 178 kts 49°
2026-05-03 23:55 38.66629 -75.54172 10998 ft 177 kts 49°
2026-05-03 23:55 38.67226 -75.52810 10998 ft 177 kts 49°
2026-05-03 23:56 38.67825 -75.51435 10995 ft 176 kts 49°
2026-05-03 23:56 38.68422 -75.50068 11005 ft 176 kts 48°
2026-05-03 23:56 38.69021 -75.48701 11008 ft 176 kts 49°
2026-05-03 23:56 38.69616 -75.47338 11009 ft 176 kts 49°
2026-05-03 23:57 38.70211 -75.45973 11018 ft 177 kts 49°
2026-05-03 23:57 38.70815 -75.44586 11005 ft 178 kts 49°
2026-05-03 23:57 38.71414 -75.43211 10994 ft 177 kts 49°
2026-05-03 23:57 38.72012 -75.41838 11000 ft 177 kts 49°
2026-05-03 23:58 38.72610 -75.40466 11003 ft 176 kts 49°
2026-05-03 23:58 38.73206 -75.39093 11003 ft 176 kts 49°
2026-05-03 23:58 38.73806 -75.37714 11000 ft 176 kts 49°
2026-05-03 23:58 38.74403 -75.36343 11000 ft 176 kts 49°
2026-05-03 23:59 38.74990 -75.34991 11000 ft 176 kts 49°
2026-05-03 23:59 38.75599 -75.33590 10996 ft 176 kts 49°
2026-05-03 23:59 38.76188 -75.32233 10994 ft 176 kts 49°
2026-05-03 23:59 38.76788 -75.30850 10997 ft 176 kts 49°
2026-05-04 00:00 38.77377 -75.29494 10994 ft 176 kts 49°
2026-05-04 00:00 38.77971 -75.28125 10994 ft 176 kts 49°
2026-05-04 00:00 38.78563 -75.26757 10995 ft 176 kts 49°
2026-05-04 00:00 38.79161 -75.25375 10994 ft 176 kts 49°
2026-05-04 00:01 38.79752 -75.24014 10994 ft 176 kts 49°
2026-05-04 00:01 38.80353 -75.22625 10988 ft 176 kts 49°
2026-05-04 00:01 38.80954 -75.21274 10987 ft 173 kts 44°
2026-05-04 00:01 38.81703 -75.20112 10985 ft 167 kts 36°
2026-05-04 00:02 38.82484 -75.18997 10989 ft 167 kts 35°
2026-05-04 00:02 38.83259 -75.17895 10989 ft 167 kts 36°
2026-05-04 00:02 38.84042 -75.16781 10989 ft 167 kts 36°
2026-05-04 00:02 38.84815 -75.15678 10985 ft 168 kts 36°
2026-05-04 00:03 38.85597 -75.14558 10980 ft 167 kts 36°
2026-05-04 00:03 38.86369 -75.13454 10980 ft 167 kts 36°
2026-05-04 00:03 38.87147 -75.12337 10982 ft 167 kts 36°
2026-05-04 00:03 38.87920 -75.11231 10976 ft 167 kts 36°
2026-05-04 00:04 38.88692 -75.10123 10974 ft 166 kts 36°
2026-05-04 00:04 38.89464 -75.09017 10974 ft 166 kts 36°
2026-05-04 00:04 38.90228 -75.07921 10980 ft 166 kts 36°
2026-05-04 00:04 38.90995 -75.06821 10974 ft 166 kts 35°
2026-05-04 00:05 38.91769 -75.05708 10971 ft 165 kts 35°
2026-05-04 00:05 38.92531 -75.04615 10969 ft 165 kts 36°
2026-05-04 00:05 38.93294 -75.03517 10975 ft 165 kts 35°
2026-05-04 00:05 38.94062 -75.02413 10970 ft 165 kts 35°
2026-05-04 00:06 38.94825 -75.01316 10973 ft 164 kts 36°
2026-05-04 00:06 38.95586 -75.00223 10974 ft 164 kts 36°
2026-05-04 00:06 38.96340 -74.99136 10978 ft 164 kts 35°
2026-05-04 00:06 38.97107 -74.98035 10979 ft 165 kts 36°
2026-05-04 00:07 38.97868 -74.96938 10978 ft 165 kts 36°
2026-05-04 00:07 38.98639 -74.95828 10975 ft 165 kts 36°
2026-05-04 00:07 38.99404 -74.94726 10974 ft 165 kts 36°
2026-05-04 00:07 39.00162 -74.93632 10976 ft 165 kts 36°
2026-05-04 00:08 39.00933 -74.92521 10977 ft 165 kts 35°
2026-05-04 00:08 39.01690 -74.91429 10979 ft 165 kts 35°
2026-05-04 00:08 39.02462 -74.90316 10978 ft 165 kts 36°
2026-05-04 00:08 39.03223 -74.89217 10978 ft 165 kts 36°
2026-05-04 00:09 39.03988 -74.88111 10977 ft 166 kts 35°
2026-05-04 00:09 39.04758 -74.87000 10975 ft 166 kts 35°
2026-05-04 00:09 39.05529 -74.85887 10980 ft 166 kts 36°
2026-05-04 00:09 39.06304 -74.84767 10974 ft 167 kts 36°
2026-05-04 00:10 39.07076 -74.83649 10970 ft 167 kts 36°
2026-05-04 00:10 39.07848 -74.82531 10969 ft 167 kts 35°
2026-05-04 00:10 39.08614 -74.81425 10968 ft 166 kts 36°
2026-05-04 00:10 39.09387 -74.80304 10963 ft 166 kts 36°
2026-05-04 00:11 39.10257 -74.79436 10964 ft 162 kts 29°
2026-05-04 00:11 39.10948 -74.78325 10973 ft 169 kts 40°
2026-05-04 00:11 39.11653 -74.77110 10977 ft 170 kts 40°
2026-05-04 00:11 39.12376 -74.75906 10976 ft 170 kts 39°
2026-05-04 00:12 39.13112 -74.74720 10970 ft 170 kts 38°
2026-05-04 00:12 39.13851 -74.73547 10971 ft 170 kts 38°
2026-05-04 00:12 39.14605 -74.72368 10966 ft 170 kts 38°
2026-05-04 00:12 39.15362 -74.71191 10967 ft 170 kts 37°
2026-05-04 00:13 39.16119 -74.70023 10964 ft 170 kts 37°
2026-05-04 00:13 39.16874 -74.68856 10961 ft 170 kts 37°
2026-05-04 00:13 39.17628 -74.67696 10957 ft 169 kts 37°
2026-05-04 00:13 39.18380 -74.66538 10966 ft 169 kts 37°
2026-05-04 00:14 39.19139 -74.65372 10963 ft 170 kts 37°
2026-05-04 00:14 39.19898 -74.64203 10960 ft 170 kts 37°
2026-05-04 00:14 39.20652 -74.63044 10958 ft 169 kts 37°
2026-05-04 00:14 39.21404 -74.61886 10955 ft 169 kts 37°
2026-05-04 00:15 39.22161 -74.60722 10959 ft 169 kts 37°
2026-05-04 00:15 39.22918 -74.59557 10953 ft 169 kts 37°
2026-05-04 00:15 39.23682 -74.58380 10952 ft 169 kts 37°
2026-05-04 00:15 39.24440 -74.57212 10954 ft 169 kts 37°
2026-05-04 00:16 39.25193 -74.56050 10956 ft 169 kts 37°
2026-05-04 00:16 39.25947 -74.54890 10953 ft 169 kts 37°
2026-05-04 00:16 39.26698 -74.53732 10950 ft 169 kts 37°
2026-05-04 00:16 39.27455 -74.52563 10958 ft 169 kts 37°
2026-05-04 00:17 39.28213 -74.51396 10952 ft 170 kts 37°
2026-05-04 00:17 39.28960 -74.50240 10941 ft 169 kts 37°
2026-05-04 00:17 39.29713 -74.49077 10942 ft 168 kts 37°
2026-05-04 00:17 39.30460 -74.47923 10948 ft 167 kts 37°
2026-05-04 00:18 39.31208 -74.46767 10962 ft 168 kts 37°
2026-05-04 00:18 39.31968 -74.45596 10953 ft 169 kts 37°
2026-05-04 00:18 39.32716 -74.44438 10958 ft 169 kts 37°
2026-05-04 00:18 39.33472 -74.43268 10949 ft 170 kts 37°
2026-05-04 00:19 39.34235 -74.42088 10946 ft 169 kts 37°
2026-05-04 00:19 39.34987 -74.40921 10953 ft 169 kts 37°
2026-05-04 00:19 39.35741 -74.39755 10946 ft 169 kts 37°
2026-05-04 00:19 39.36489 -74.38595 10950 ft 169 kts 37°
2026-05-04 00:20 39.37246 -74.37421 10958 ft 169 kts 37°
2026-05-04 00:20 39.38000 -74.36252 10949 ft 169 kts 37°
2026-05-04 00:20 39.38750 -74.35088 10944 ft 169 kts 37°
2026-05-04 00:20 39.39502 -74.33923 10940 ft 169 kts 38°
2026-05-04 00:21 39.40248 -74.32764 10946 ft 168 kts 38°
2026-05-04 00:21 39.41002 -74.31593 10952 ft 168 kts 38°
2026-05-04 00:21 39.41758 -74.30420 10955 ft 170 kts 37°
2026-05-04 00:21 39.42506 -74.29260 10943 ft 170 kts 38°
2026-05-04 00:22 39.43263 -74.28082 10943 ft 170 kts 38°
2026-05-04 00:22 39.44018 -74.26905 10942 ft 169 kts 38°
2026-05-04 00:22 39.44770 -74.25735 10938 ft 169 kts 38°
2026-05-04 00:22 39.45520 -74.24569 10938 ft 169 kts 37°
2026-05-04 00:23 39.46271 -74.23398 10940 ft 169 kts 38°
2026-05-04 00:23 39.47022 -74.22229 10939 ft 169 kts 37°
2026-05-04 00:23 39.47774 -74.21059 10937 ft 169 kts 38°
2026-05-04 00:23 39.48529 -74.19882 10932 ft 169 kts 38°
2026-05-04 00:24 39.49274 -74.18719 10935 ft 169 kts 37°
2026-05-04 00:24 39.50032 -74.17538 10933 ft 169 kts 38°
2026-05-04 00:24 39.50776 -74.16376 10931 ft 168 kts 38°
2026-05-04 00:24 39.51530 -74.15198 10933 ft 168 kts 37°
2026-05-04 00:25 39.52271 -74.14042 10937 ft 168 kts 38°
2026-05-04 00:25 39.53020 -74.12872 10937 ft 168 kts 37°
2026-05-04 00:25 39.53763 -74.11711 10938 ft 168 kts 38°
2026-05-04 00:25 39.54509 -74.10545 10938 ft 168 kts 38°
2026-05-04 00:26 39.55261 -74.09370 10933 ft 169 kts 37°
2026-05-04 00:26 39.56011 -74.08198 10929 ft 169 kts 38°
2026-05-04 00:26 39.56753 -74.07035 10930 ft 168 kts 38°
2026-05-04 00:26 39.57499 -74.05868 10926 ft 168 kts 37°
2026-05-04 00:27 39.58244 -74.04699 10927 ft 168 kts 37°
2026-05-04 00:27 39.58996 -74.03520 10927 ft 168 kts 37°
2026-05-04 00:27 39.59740 -74.02357 10923 ft 168 kts 38°
2026-05-04 00:27 39.60487 -74.01183 10926 ft 168 kts 38°
2026-05-04 00:28 39.61227 -74.00024 10930 ft 168 kts 37°
2026-05-04 00:28 39.61974 -73.98851 10930 ft 168 kts 37°
2026-05-04 00:28 39.62714 -73.97689 10930 ft 168 kts 37°
2026-05-04 00:28 39.63457 -73.96523 10925 ft 168 kts 38°
2026-05-04 00:29 39.64201 -73.95356 10922 ft 168 kts 38°
2026-05-04 00:29 39.64942 -73.94190 10922 ft 168 kts 38°
2026-05-04 00:29 39.65684 -73.93024 10924 ft 168 kts 38°
2026-05-04 00:29 39.66431 -73.91848 10923 ft 168 kts 38°
2026-05-04 00:30 39.67174 -73.90680 10920 ft 168 kts 38°
2026-05-04 00:30 39.67913 -73.89517 10918 ft 167 kts 37°
2026-05-04 00:30 39.68659 -73.88341 10917 ft 167 kts 38°
2026-05-04 00:30 39.69392 -73.87188 10919 ft 167 kts 38°
2026-05-04 00:31 39.70131 -73.86023 10920 ft 167 kts 38°
2026-05-04 00:31 39.70874 -73.84855 10919 ft 167 kts 37°
2026-05-04 00:31 39.71610 -73.83698 10922 ft 167 kts 37°
2026-05-04 00:31 39.72354 -73.82529 10923 ft 167 kts 37°
2026-05-04 00:32 39.73092 -73.81362 10925 ft 168 kts 38°
2026-05-04 00:32 39.73843 -73.80177 10915 ft 168 kts 37°
2026-05-04 00:32 39.74585 -73.79005 10915 ft 168 kts 38°
2026-05-04 00:32 39.75327 -73.77829 10917 ft 168 kts 38°
2026-05-04 00:33 39.76064 -73.76668 10913 ft 167 kts 37°
2026-05-04 00:33 39.77542 -73.74335 10913 ft 167 kts 37°
2026-05-04 00:33 39.78282 -73.73161 10916 ft 167 kts 38°
2026-05-04 00:34 39.79023 -73.71985 10914 ft 168 kts 38°
2026-05-04 00:34 39.79765 -73.70811 10912 ft 167 kts 38°
2026-05-04 00:34 39.80501 -73.69642 10912 ft 167 kts 37°
2026-05-04 00:34 39.81234 -73.68483 10914 ft 167 kts 38°
2026-05-04 00:35 39.81974 -73.67309 10911 ft 167 kts 37°
2026-05-04 00:35 39.82713 -73.66135 10911 ft 167 kts 38°
2026-05-04 00:35 39.83456 -73.64961 10908 ft 167 kts 38°
2026-05-04 00:35 39.84187 -73.63797 10909 ft 167 kts 38°
2026-05-04 00:36 39.84924 -73.62631 10909 ft 167 kts 37°
2026-05-04 00:36 39.85666 -73.61453 10907 ft 167 kts 37°
2026-05-04 00:36 39.86404 -73.60282 10902 ft 167 kts 38°
2026-05-04 00:36 39.87144 -73.59104 10904 ft 167 kts 38°
2026-05-04 00:37 39.87882 -73.57928 10906 ft 167 kts 38°
2026-05-04 00:37 39.88609 -73.56773 10910 ft 167 kts 38°
2026-05-04 00:37 39.89350 -73.55593 10908 ft 167 kts 38°
2026-05-04 00:37 39.90087 -73.54429 10906 ft 166 kts 36°
2026-05-04 00:38 39.90900 -73.53405 10905 ft 162 kts 29°
2026-05-04 00:38 39.91739 -73.52418 10906 ft 162 kts 28°
2026-05-04 00:38 39.92570 -73.51442 10908 ft 162 kts 28°
2026-05-04 00:38 39.93411 -73.50452 10907 ft 162 kts 28°
2026-05-04 00:39 39.94243 -73.49470 10903 ft 162 kts 29°
2026-05-04 00:39 39.95084 -73.48476 10904 ft 162 kts 29°
2026-05-04 00:39 39.95917 -73.47490 10902 ft 162 kts 30°
2026-05-04 00:39 39.96748 -73.46506 10900 ft 162 kts 29°
2026-05-04 00:40 39.97594 -73.45508 10896 ft 162 kts 29°
2026-05-04 00:40 39.98425 -73.44527 10900 ft 162 kts 29°
2026-05-04 00:40 39.99258 -73.43542 10899 ft 162 kts 29°
2026-05-04 00:40 40.00100 -73.42544 10894 ft 162 kts 29°
2026-05-04 00:41 40.00932 -73.41557 10895 ft 162 kts 29°
2026-05-04 00:41 40.01765 -73.40569 10893 ft 162 kts 29°
2026-05-04 00:41 40.02602 -73.39580 10894 ft 162 kts 29°
2026-05-04 00:41 40.03433 -73.38595 10897 ft 161 kts 29°
2026-05-04 00:42 40.04270 -73.37604 10896 ft 162 kts 29°
2026-05-04 00:42 40.05096 -73.36625 10898 ft 162 kts 29°
2026-05-04 00:42 40.05936 -73.35630 10898 ft 162 kts 29°
2026-05-04 00:42 40.06770 -73.34639 10897 ft 162 kts 29°
2026-05-04 00:43 40.07596 -73.33657 10894 ft 162 kts 29°
2026-05-04 00:43 40.08437 -73.32659 10889 ft 162 kts 30°
2026-05-04 00:43 40.09271 -73.31667 10886 ft 162 kts 30°
2026-05-04 00:43 40.10101 -73.30682 10886 ft 162 kts 30°
2026-05-04 00:44 40.10914 -73.29715 10893 ft 162 kts 30°
2026-05-04 00:44 40.11754 -73.28719 10890 ft 162 kts 29°
2026-05-04 00:44 40.12677 -73.28018 10873 ft 160 kts 25°
2026-05-04 00:44 40.13497 -73.26962 10888 ft 165 kts 33°
2026-05-04 00:45 40.14299 -73.25895 10889 ft 165 kts 32°
2026-05-04 00:45 40.15118 -73.24844 10887 ft 165 kts 31°
2026-05-04 00:45 40.15943 -73.23811 10884 ft 165 kts 31°
2026-05-04 00:45 40.16773 -73.22792 10884 ft 164 kts 31°
2026-05-04 00:46 40.17606 -73.21773 10887 ft 164 kts 31°
2026-05-04 00:46 40.18450 -73.20755 10889 ft 164 kts 30°
2026-05-04 00:46 40.19289 -73.19746 10889 ft 164 kts 30°
2026-05-04 00:46 40.20129 -73.18739 10894 ft 164 kts 30°
2026-05-04 00:47 40.20977 -73.17721 10887 ft 164 kts 30°
2026-05-04 00:47 40.21817 -73.16718 10886 ft 165 kts 30°
2026-05-04 00:47 40.22671 -73.15696 10883 ft 165 kts 30°
2026-05-04 00:47 40.23507 -73.14697 10884 ft 164 kts 30°
2026-05-04 00:48 40.24354 -73.13683 10883 ft 164 kts 30°
2026-05-04 00:48 40.25203 -73.12665 10882 ft 164 kts 30°
2026-05-04 00:48 40.26047 -73.11655 10880 ft 165 kts 30°
2026-05-04 00:48 40.26891 -73.10645 10878 ft 165 kts 30°
2026-05-04 00:49 40.27738 -73.09631 10880 ft 165 kts 30°
2026-05-04 00:49 40.28576 -73.08627 10877 ft 165 kts 30°
2026-05-04 00:49 40.29428 -73.07606 10877 ft 165 kts 30°
2026-05-04 00:49 40.30274 -73.06590 10874 ft 165 kts 30°
2026-05-04 00:50 40.31118 -73.05579 10871 ft 165 kts 30°
2026-05-04 00:50 40.31971 -73.04556 10874 ft 165 kts 30°
2026-05-04 00:50 40.32817 -73.03539 10875 ft 165 kts 30°
2026-05-04 00:50 40.33654 -73.02535 10876 ft 165 kts 30°
2026-05-04 00:51 40.34502 -73.01516 10877 ft 165 kts 30°
2026-05-04 00:51 40.35347 -73.00500 10877 ft 165 kts 30°
2026-05-04 00:51 40.36190 -72.99487 10878 ft 165 kts 30°
2026-05-04 00:51 40.37032 -72.98476 10876 ft 165 kts 30°
2026-05-04 00:52 40.37876 -72.97460 10876 ft 165 kts 30°
2026-05-04 00:52 40.38726 -72.96438 10878 ft 165 kts 30°
2026-05-04 00:52 40.39574 -72.95417 10874 ft 165 kts 30°
2026-05-04 00:52 40.40411 -72.94408 10870 ft 165 kts 30°
2026-05-04 00:53 40.41257 -72.93389 10870 ft 165 kts 31°
2026-05-04 00:53 40.42108 -72.92364 10870 ft 164 kts 30°
2026-05-04 00:53 40.42947 -72.91353 10874 ft 164 kts 30°
2026-05-04 00:53 40.43785 -72.90343 10872 ft 164 kts 30°
2026-05-04 00:54 40.44628 -72.89326 10871 ft 164 kts 30°
2026-05-04 00:54 40.45471 -72.88309 10870 ft 165 kts 30°
2026-05-04 00:54 40.46313 -72.87292 10865 ft 165 kts 30°
2026-05-04 00:54 40.47157 -72.86274 10864 ft 165 kts 30°
2026-05-04 00:55 40.48000 -72.85254 10863 ft 165 kts 30°
2026-05-04 00:55 40.48850 -72.84228 10861 ft 165 kts 31°
2026-05-04 00:55 40.49683 -72.83219 10857 ft 165 kts 31°
2026-05-04 00:55 40.50531 -72.82193 10859 ft 164 kts 31°
2026-05-04 00:56 40.51375 -72.81174 10859 ft 164 kts 30°
2026-05-04 00:56 40.52214 -72.80157 10861 ft 164 kts 31°
2026-05-04 00:56 40.53056 -72.79139 10863 ft 165 kts 31°
2026-05-04 00:56 40.53900 -72.78117 10860 ft 165 kts 31°
2026-05-04 00:57 40.54744 -72.77093 10864 ft 164 kts 30°
2026-05-04 00:57 40.55588 -72.76072 10858 ft 165 kts 31°
2026-05-04 00:57 40.56430 -72.75050 10854 ft 165 kts 30°
2026-05-04 00:57 40.57263 -72.74040 10852 ft 164 kts 30°
2026-05-04 00:58 40.58108 -72.73015 10862 ft 164 kts 31°
2026-05-04 00:58 40.58952 -72.71991 10863 ft 165 kts 31°
2026-05-04 00:58 40.59787 -72.70976 10852 ft 164 kts 30°
2026-05-04 00:58 40.60632 -72.69950 10861 ft 164 kts 30°
2026-05-04 00:59 40.61460 -72.68945 10852 ft 164 kts 31°
2026-05-04 00:59 40.62295 -72.67928 10853 ft 162 kts 31°
2026-05-04 00:59 40.63132 -72.66911 10867 ft 164 kts 31°
2026-05-04 00:59 40.63984 -72.65882 10739 ft 170 kts 31°
2026-05-04 01:00 40.64877 -72.64799 10645 ft 175 kts 31°
2026-05-04 01:00 40.65767 -72.63717 10522 ft 178 kts 32°
2026-05-04 01:00 40.66676 -72.62607 10395 ft 179 kts 32°
2026-05-04 01:00 40.67605 -72.61474 10252 ft 180 kts 32°
2026-05-04 01:01 40.68517 -72.60359 10099 ft 181 kts 32°
2026-05-04 01:01 40.69445 -72.59229 9981 ft 181 kts 32°
2026-05-04 01:01 40.70372 -72.58096 9868 ft 181 kts 32°
2026-05-04 01:01 40.71294 -72.56972 9724 ft 181 kts 32°
2026-05-04 01:02 40.72214 -72.55849 9592 ft 181 kts 32°
2026-05-04 01:02 40.73143 -72.54713 9464 ft 181 kts 32°
2026-05-04 01:02 40.74066 -72.53585 9340 ft 181 kts 32°
2026-05-04 01:02 40.74987 -72.52458 9226 ft 181 kts 32°
2026-05-04 01:03 40.75902 -72.51341 9096 ft 180 kts 32°
2026-05-04 01:03 40.76822 -72.50214 8977 ft 180 kts 32°
2026-05-04 01:03 40.77739 -72.49094 8839 ft 180 kts 32°
2026-05-04 01:03 40.78668 -72.47959 8701 ft 180 kts 32°
2026-05-04 01:04 40.79582 -72.46833 8571 ft 181 kts 32°
2026-05-04 01:04 40.80510 -72.45695 8447 ft 181 kts 32°
2026-05-04 01:04 40.81426 -72.44577 8318 ft 180 kts 32°
2026-05-04 01:04 40.82339 -72.43441 8169 ft 179 kts 32°
2026-05-04 01:05 40.83251 -72.42325 8028 ft 177 kts 32°
2026-05-04 01:05 40.84141 -72.41229 7904 ft 176 kts 32°
2026-05-04 01:05 40.85036 -72.40128 7752 ft 175 kts 32°
2026-05-04 01:05 40.85926 -72.39042 7613 ft 173 kts 31°
2026-05-04 01:06 40.86795 -72.37972 7495 ft 171 kts 30°
2026-05-04 01:06 40.87664 -72.36901 7368 ft 168 kts 31°
2026-05-04 01:06 40.88511 -72.35856 7253 ft 166 kts 31°
2026-05-04 01:06 40.89353 -72.34830 7129 ft 162 kts 32°
2026-05-04 01:07 40.90166 -72.33823 6975 ft 159 kts 30°
2026-05-04 01:07 40.90965 -72.32837 6847 ft 155 kts 32°
2026-05-04 01:07 40.91749 -72.31840 6703 ft 157 kts 38°
2026-05-04 01:07 40.92296 -72.30548 6562 ft 164 kts 53°
2026-05-04 01:08 40.92769 -72.29172 6429 ft 164 kts 54°
2026-05-04 01:08 40.93235 -72.27790 6298 ft 165 kts 54°
2026-05-04 01:08 40.93705 -72.26403 6166 ft 167 kts 55°
2026-05-04 01:08 40.94186 -72.24985 6017 ft 171 kts 55°
2026-05-04 01:09 40.94674 -72.23543 5865 ft 175 kts 56°
2026-05-04 01:09 40.95177 -72.22057 5714 ft 179 kts 56°
2026-05-04 01:09 40.95692 -72.20539 5563 ft 183 kts 56°
2026-05-04 01:09 40.96219 -72.18982 5410 ft 187 kts 56°
2026-05-04 01:10 40.96756 -72.17390 5254 ft 189 kts 56°
2026-05-04 01:10 40.97292 -72.15803 5099 ft 190 kts 57°
2026-05-04 01:10 40.97832 -72.14205 4941 ft 191 kts 57°
2026-05-04 01:10 40.98371 -72.12606 4785 ft 192 kts 57°
2026-05-04 01:11 40.98918 -72.10986 4626 ft 193 kts 57°
2026-05-04 01:11 40.99462 -72.09373 4465 ft 193 kts 57°
2026-05-04 01:11 41.00013 -72.07738 4303 ft 193 kts 57°
2026-05-04 01:11 41.00557 -72.06124 4143 ft 193 kts 57°
2026-05-04 01:12 41.01106 -72.04495 3982 ft 193 kts 57°
2026-05-04 01:12 41.01649 -72.02878 3820 ft 193 kts 57°
2026-05-04 01:12 41.02197 -72.01255 3660 ft 193 kts 57°
2026-05-04 01:12 41.02742 -71.99623 3497 ft 191 kts 57°
2026-05-04 01:13 41.03277 -71.98030 3332 ft 187 kts 57°
2026-05-04 01:13 41.03804 -71.96465 3172 ft 185 kts 56°
2026-05-04 01:13 41.04335 -71.94905 3013 ft 184 kts 56°
2026-05-04 01:13 41.04857 -71.93371 2857 ft 181 kts 56°
2026-05-04 01:14 41.05356 -71.91888 2693 ft 174 kts 56°
2026-05-04 01:14 41.05833 -71.90450 2529 ft 169 kts 56°
2026-05-04 01:14 41.06295 -71.89036 2368 ft 165 kts 56°
2026-05-04 01:14 41.06744 -71.87656 2217 ft 162 kts 56°
2026-05-04 01:15 41.07188 -71.86277 2056 ft 161 kts 57°
2026-05-04 01:15 41.07624 -71.84927 1894 ft 160 kts 56°
2026-05-04 01:15 41.08066 -71.83567 1734 ft 160 kts 56°
2026-05-04 01:15 41.08604 -71.82344 1573 ft 146 kts 30°
2026-05-04 01:16 41.09476 -71.81980 1413 ft 126 kts 344°
2026-05-04 01:16 41.10201 -71.82496 1316 ft 115 kts 305°
2026-05-04 01:16 41.10397 -71.83416 1310 ft 109 kts 281°
2026-05-04 01:16 41.10448 -71.84345 1417 ft 92 kts 281°
2026-05-04 01:17 41.10487 -71.85180 1385 ft 88 kts 275°
2026-05-04 01:17 41.10342 -71.85976 1291 ft 90 kts 262°
2026-05-04 01:17 41.10130 -71.86746 1184 ft 87 kts 262°
2026-05-04 01:17 41.09897 -71.87461 1140 ft 84 kts 252°
2026-05-04 01:18 41.09579 -71.88117 1065 ft 82 kts 248°
2026-05-04 01:18 41.09295 -71.88745 967 ft 78 kts 256°
2026-05-04 01:18 41.09081 -71.89421 765 ft 81 kts 261°
2026-05-04 01:18 41.08841 -71.90099 544 ft 84 kts 251°
2026-05-04 01:19 41.08498 -71.90729 326 ft 82 kts 242°
2026-05-04 01:19 41.08165 -71.91324 190 ft 78 kts 240°
2026-05-04 01:19 41.07804 -71.91847 16 ft 71 kts 217°
2026-05-04 01:19 41.07517 -71.92245 7 ft 48 kts 231°
2026-05-04 01:20 41.07429 -71.92379 7 ft 6 kts 231°
2026-05-04 01:20 41.07373 -71.92400 7 ft 12 kts 122°
2026-05-04 01:20 41.07337 -71.92350 7 ft 3 kts 132°
2026-05-04 01:20 41.07322 -71.92313 7 ft 5 kts 72°
2026-05-04 01:21 41.07330 -71.92306 7 ft 0 kts 337°
2026-05-04 01:22 41.07329 -71.92306 7 ft 1 kts 336°
2026-05-04 01:22 41.07323 -71.92303 7 ft 0 kts 343°
2026-05-04 01:22 41.07321 -71.92302 7 ft 0 kts 314°